Meteo Giornale » Osservazioni meteo Stati Uniti (USA) » Chehalis Central

ore: 11:35 - Osservazioni Meteo Chehalis Central
Lat. 46° 41' N Lon. 122° 59' W Alt. 54 metri s.l.m.

sereno

21 °C

Sereno

Temp. 24 Ore

12 °C

22 °C

Nord/NOvest

14.8 Km/h

Dew point 13 °C

Umidità 60 %

Visibilità  10 Km

Il sole sorge alle ore 06:31

Il sole tramonta alle ore 19:53

Data e Ora Cielo e Fenomeni T °C DP °C Um. % Pres. hPa Vis. km Vento km/h
Oggi h: 11:35 sereno Sereno 21 13 60 1011 10 N/NO 14.8
Oggi h: 11:15 sereno Sereno 20 13 64 1012 10 N 7.4
Oggi h: 10:55 sereno Sereno 20 14 68 1012 10 N 7.4
Oggi h: 10:35 sereno Sereno 19 14 72 1012 10 N 5.5
Oggi h: 10:15 sereno Sereno 18 15 82 1012 10 N 0
Oggi h: 09:55 sereno Sereno 17 15 88 1012 10 N/NO 13
Oggi h: 09:35 sereno Sereno 17 15 88 1012 10 N 0
Oggi h: 09:15 sereno Sereno 16 15 93 1013 10 N 5.5
Oggi h: 08:55 sereno Sereno 15 15 100 1013 10 N 0
Oggi h: 08:35 sereno Sereno 14 14 100 1013 10 N/NE 11.1
Oggi h: 08:15 sereno Sereno 14 14 100 1013 10 N 5.5
Oggi h: 07:55 sereno Sereno 14 14 100 1013 10 N/NE 9.3
Oggi h: 07:35 sereno Sereno 13 13 100 1013 10 N/NE 9.3
Oggi h: 07:15 sereno Sereno 13 13 100 1013 10 N 0
Oggi h: 06:55 sereno Sereno 12 12 100 1013 10 N 0
Oggi h: 06:35 sereno Sereno 12 12 100 1013 10 N 0
Oggi h: 06:15 sereno Sereno 12 12 100 1013 10 N 0
Oggi h: 05:55 sereno Sereno 13 13 100 1014 10 N 7.4
Oggi h: 05:35 sereno Sereno 13 13 100 1014 10 N 0
Oggi h: 05:15 sereno Sereno 13 13 100 1014 10 N/NE 11.1
Oggi h: 04:55 sereno Sereno 13 13 100 1014 10 N 0
Oggi h: 04:35 sereno Sereno 13 13 100 1014 10 N 0
Oggi h: 04:15 sereno Sereno 13 13 100 1014 10 N/NE 7.4
Oggi h: 03:55 sereno Sereno 12 12 100 1014 10 NE 9.3
Oggi h: 03:35 sereno Sereno 12 12 100 1014 10 NE 11.1
Oggi h: 03:15 sereno Sereno 12 12 100 1014 10 NE 7.4
Oggi h: 02:55 sereno Sereno 12 12 100 1015 10 N 0
Oggi h: 02:35 sereno Sereno 12 12 100 1015 10 N 0
Oggi h: 02:15 sereno Sereno 13 13 100 1015 10 N 0
Oggi h: 01:55 sereno Sereno 13 13 100 1015 10 N 0
Oggi h: 01:35 sereno Sereno 13 13 100 1015 10 N 0
Oggi h: 01:15 sereno Sereno 13 13 100 1015 10 N 0
Oggi h: 00:55 sereno Sereno 13 13 100 1016 10 N 0
Oggi h: 00:35 sereno Sereno 13 13 100 1016 10 N 0
Oggi h: 00:15 sereno Sereno 13 13 100 1016 10 N 0
Ieri h: 23:55 sereno Sereno 14 14 100 1016 10 N 0
Ieri h: 23:35 sereno Sereno 14 14 100 1016 10 N 0
Ieri h: 23:15 sereno Sereno 15 15 100 1017 10 N 0
Ieri h: 22:55 sereno Sereno 15 15 100 1017 10 N 0
Ieri h: 22:35 sereno Sereno 16 15 93 1017 10 N/NE 7.4
Ieri h: 22:15 sereno Sereno 16 15 93 1017 10 N 0
Ieri h: 21:55 sereno Sereno 17 14 82 1017 10 N 0
Ieri h: 21:35 sereno Sereno 18 14 77 1017 10 N 0
Ieri h: 21:15 sereno Sereno 18 14 77 1017 10 N 5.5
Ieri h: 20:55 sereno Sereno 18 14 77 1017 10 N 0
Ieri h: 20:35 sereno Sereno 18 14 77 1017 10 N 7.4
Ieri h: 20:15 sereno Sereno 19 14 72 1017 10 N 5.5
Ieri h: 19:55 sereno Sereno 19 13 68 1017 10 N 7.4
Ieri h: 19:35 sereno Sereno 20 12 59 1017 10 N 0
Ieri h: 19:15 sereno Sereno 21 12 56 1017 14 NO 7.4
Ieri h: 18:55 sereno Sereno 21 11 52 1017 14 N 0
Ieri h: 18:35 sereno Sereno 22 11 49 1017 14 N 0
Ieri h: 18:15 sereno Sereno 22 10 46 1017 14 N 7.4
Ieri h: 17:55 sereno Sereno 22 11 49 1018 10 O/NO 9.3
Ieri h: 17:35 sereno Sereno 21 11 52 1018 10 N 9.3
Ieri h: 17:15 poco_nuvoloso Poco Nuvoloso 22 10 46 1018 10 N 7.4
Ieri h: 16:55 molto_nuvoloso Molto Nuvoloso 21 11 52 1018 10 N 5.5
Ieri h: 16:35 nuvoloso Nuvoloso 21 10 49 1018 10 O 7.4
Ieri h: 16:15 nuvoloso Nuvoloso 21 9 46 1018 10 N 0
Ieri h: 15:55 molto_nuvoloso Molto Nuvoloso 21 10 49 1019 10 N 11.1
Ieri h: 15:35 nuvoloso Nuvoloso 21 10 49 1019 10 O/NO 7.4
Ieri h: 15:15 sereno Sereno 21 10 49 1019 10 N 9.3
Ieri h: 14:55 molto_nuvoloso Molto Nuvoloso 21 11 52 1019 10 N 7.4
Ieri h: 14:35 coperto Coperto 21 11 52 1019 10 N 5.5
Ieri h: 14:15 coperto Coperto 20 11 56 1020 10 N 0
Ieri h: 13:55 coperto Coperto 20 10 52 1020 10 N 0
Ieri h: 13:35 coperto Coperto 19 11 59 1020 10 N 0
Ieri h: 13:15 coperto Coperto 19 11 59 1020 10 O/SO 9.3
Ieri h: 12:55 coperto Coperto 19 12 63 1020 10 N 9.3
Ieri h: 12:35 coperto Coperto 19 11 59 1020 10 N 0
Ieri h: 12:15 coperto Coperto 19 11 59 1020 10 N/NE 7.4
Ieri h: 11:55 coperto Coperto 19 11 59 1020 10 N 0
Ieri h: 11:35 molto_nuvoloso Molto Nuvoloso 18 12 67 1020 10 N 7.4